Location: Chiroubles
(46.1812°N, 4.6660°E)
Time: 18:53:04
(UTC+00:00)

Cosmos 968 Rocket - Pass Details

Date: 15 August 2020
Orbit: 740 x 772 km, 74.0° (Epoch: 24 September)

Event Time Altitude Azimuth Distance (km) Brightness Sun altitude
Exits shadow 21:37:22 32° 76° (ENE) 1,255 4.4 -23.5°
Drops below altitude 10° 21:40:57 10° 37° (NE) 2,268 6.2 -23.9°
Sets 21:43:28 0° 29° (NNE) 3,201 7.1 -24.1°
